(162020) = 1992 SF6 = 2000 EC196 = 1995 DK7 = 1995 EM9

Discovered at Kitt Peak on 1995-02-24 by Spacewatch.

Orbit

Orbit type: Main Belt

Note: WebGL enabled browser required.

epoch2023-09-13.0
epoch JD2460200.5
perihelion date2022-09-13.11083
perihelion JD2459835.61083
argument of perihelion (°)332.89301
ascending node (°)33.44849
inclination (°)2.36502
eccentricity0.0452119
perihelion distance (AU)2.7743327
Tisserand w.r.t. Jupiter3.3
ΔV w.r.t. Earth (km/sec)10.4
semimajor axis (AU)2.9057051
mean anomaly (°)72.60851
mean daily motion (°/day)0.19898780
aphelion distance (AU)3.037
period (years)4.95
P-vector [x]0.99366729
P-vector [y]0.10911616
P-vector [z]0.02681368
Q-vector [x]-0.11003622
Q-vector [y]0.89667623
Q-vector [z]0.42879339
absolute magnitude15.66
phase slope0.15
uncertainty0
referenceMPEC 2024-B149
observations used643
oppositions16
arc length (days)11446
first opposition used1992
last opposition used2024
residual rms (arc-secs)0.71
perturbers coarse indicatorM-v
perturbers precise indicator003Ek
first observation date used1992-09-26.0
last observation date used2024-01-28.0
computer nameMPCLINUX
JD of orbit computation2456670.978269
perihelion JD uncertainty (days)2.9943E-04
argument of perihelion uncertainty (°)1.6792E-04
ascending node uncertainty (°)1.5628E-04
inclination uncertainty (°)7.3212E-06
eccentricity uncertainty 9.3429E-08
perihelion distance uncertainty (AU)2.6548E-07
Minimum Orbit Intersection Distances (in AU)
for orbit epoch: 2460200.5, reference: E2024-BE9
Mercury2.3969
Venus2.04877
Earth1.7718
Mars1.31267
Jupiter2.175
Saturn6.1532
Uranus15.4176
Neptune27.0523

Observations

661 total observations over interval: 1992 09 26.18620 – 2024 01 28.478281
These data are available for download (format description).

Date (UT) J2000 RA J2000 Dec Magn Location Ref
1992 09 26.18620 22 54 18.71 -09 45 09.9 19.9 V 691 – Steward Observatory, Kitt Peak-Spacewatch MPC 21028
1992 09 26.20464 22 54 17.94 -09 45 12.6   691 – Steward Observatory, Kitt Peak-Spacewatch MPC 21028
1992 09 26.22307 22 54 17.18 -09 45 16.0   691 – Steward Observatory, Kitt Peak-Spacewatch MPC 21028
1992 09 27.13011 22 53 42.02 -09 47 50.7 19.6 V 691 – Steward Observatory, Kitt Peak-Spacewatch MPC 21028
1992 09 27.14828 22 53 41.27 -09 47 53.7   691 – Steward Observatory, Kitt Peak-Spacewatch MPC 21028
1992 09 27.17565 22 53 40.17 -09 47 58.6   691 – Steward Observatory, Kitt Peak-Spacewatch MPC 21028
1995 02 24.33108 11 40 24.98 +04 50 54.0   691 – Steward Observatory, Kitt Peak-Spacewatch MPC 25002
1995 02 24.35256 11 40 24.04 +04 50 59.7 19.9 V 691 – Steward Observatory, Kitt Peak-Spacewatch MPC 25002
1995 02 24.37400 11 40 23.12 +04 51 04.9   691 – Steward Observatory, Kitt Peak-Spacewatch MPC 25002
1995 03 02.32064 11 36 01.14 +05 17 59.6 20.1 V 691 – Steward Observatory, Kitt Peak-Spacewatch MPC 25002
1995 03 02.34209 11 36 00.13 +05 18 06.0   691 – Steward Observatory, Kitt Peak-Spacewatch MPC 25002
1995 03 02.37363 11 35 58.65 +05 18 14.2   691 – Steward Observatory, Kitt Peak-Spacewatch MPC 25002
1995 03 07.21646 11 32 11.41 +05 40 57.0   691 – Steward Observatory, Kitt Peak-Spacewatch MPC 42428
1995 03 07.23789 11 32 10.38 +05 41 02.4 19.9 V 691 – Steward Observatory, Kitt Peak-Spacewatch MPC 42428
1995 03 07.25937 11 32 09.33 +05 41 08.6   691 – Steward Observatory, Kitt Peak-Spacewatch MPC 42428
2000 03 03.36643 11 48 52.53 +03 45 28.6 18.1   704 – Lincoln Laboratory ETS, New Mexico MPS 16946
2000 03 03.38074 11 48 51.75 +03 45 32.3 17.9   704 – Lincoln Laboratory ETS, New Mexico MPS 16946
2000 03 03.39493 11 48 51.06 +03 45 35.8 17.6   704 – Lincoln Laboratory ETS, New Mexico MPS 16946
2000 03 03.40896 11 48 50.42 +03 45 39.5 17.9   704 – Lincoln Laboratory ETS, New Mexico MPS 16946
2000 03 11.32564 11 42 40.53 +04 22 31.8 20.2   704 – Lincoln Laboratory ETS, New Mexico MPS 16946
2000 03 11.33819 11 42 39.99 +04 22 33.1 20.1   704 – Lincoln Laboratory ETS, New Mexico MPS 16946
2000 03 11.35585 11 42 39.09 +04 22 39.7 20.1   704 – Lincoln Laboratory ETS, New Mexico MPS 16946
2000 03 11.36840 11 42 38.52 +04 22 42.5 20.4   704 – Lincoln Laboratory ETS, New Mexico MPS 16946
2002 08 30.36685 23 55 15.49 -03 14 24.4 20.0 V 291 – LPL/Spacewatch II MPS 60694
2002 08 30.37780 23 55 15.05 -03 14 27.0 20.0 V 291 – LPL/Spacewatch II MPS 60694
2002 08 30.38663 23 55 14.68 -03 14 29.2 20.0 V 291 – LPL/Spacewatch II MPS 60694
2002 08 31.26295 23 54 40.33 -03 18 00.0 20.2 V 291 – LPL/Spacewatch II MPS 60694
2002 08 31.27046 23 54 40.04 -03 18 02.1 20.1 V 291 – LPL/Spacewatch II MPS 60694
2002 08 31.27764 23 54 39.75 -03 18 03.8 20.1 V 291 – LPL/Spacewatch II MPS 60694
2002 08 31.33867 23 54 37.15 -03 18 17.9 19.2 R 699 – Lowell Observatory-LONEOS MPS 60694
2002 08 31.35626 23 54 36.34 -03 18 23.1   699 – Lowell Observatory-LONEOS MPS 60694
2002 08 31.37383 23 54 35.74 -03 18 26.9   699 – Lowell Observatory-LONEOS MPS 60694
2002 08 31.39138 23 54 35.03 -03 18 31.3   699 – Lowell Observatory-LONEOS MPS 60694
2002 09 04.30188 23 51 52.65 -03 34 51.0 19.1 R 699 – Lowell Observatory-LONEOS MPS 60694
2002 09 04.32996 23 51 51.43 -03 34 58.9   699 – Lowell Observatory-LONEOS MPS 60694
2002 09 04.35802 23 51 50.23 -03 35 05.1   699 – Lowell Observatory-LONEOS MPS 60694
2002 09 04.38609 23 51 48.93 -03 35 14.0   699 – Lowell Observatory-LONEOS MPS 60694
2002 09 07.29398 23 49 40.84 -03 47 52.6 19.7   704 – Lincoln Laboratory ETS, New Mexico MPS 60694
2002 09 07.30798 23 49 40.13 -03 47 57.3 20.1   704 – Lincoln Laboratory ETS, New Mexico MPS 60695
2002 09 07.32209 23 49 39.49 -03 48 00.4 19.7   704 – Lincoln Laboratory ETS, New Mexico MPS 60695
2002 09 11.41112 23 46 31.35 -04 06 14.5 20.0   608 – Haleakala-AMOS MPS 60695
2002 09 11.42175 23 46 30.86 -04 06 18.1 20.3   608 – Haleakala-AMOS MPS 60695
2002 09 11.43239 23 46 30.30 -04 06 20.6 20.6   608 – Haleakala-AMOS MPS 60695
2002 09 13.21609 23 45 06.37 -04 14 21.6 19.3   644 – Palomar Mountain/NEAT MPS 60695
2002 09 13.29087 23 45 02.75 -04 14 42.6 18.7   644 – Palomar Mountain/NEAT MPS 60695
2002 09 13.35500 23 44 59.56 -04 14 59.3 19.1   644 – Palomar Mountain/NEAT MPS 60695
2002 09 15.34101 23 43 24.94 -04 23 55.5 19.0 R 699 – Lowell Observatory-LONEOS MPS 60695
2002 09 15.35138 23 43 24.48 -04 23 56.3   699 – Lowell Observatory-LONEOS MPS 60695
2002 09 15.36179 23 43 24.00 -04 23 59.6   699 – Lowell Observatory-LONEOS MPS 60695
2002 09 15.37216 23 43 23.43 -04 24 02.8   699 – Lowell Observatory-LONEOS MPS 60695
2002 09 15.43858 23 43 20.16 -04 24 20.5 18.9   644 – Palomar Mountain/NEAT MPS 60695
2002 09 15.46091 23 43 19.09 -04 24 26.3 18.9   644 – Palomar Mountain/NEAT MPS 60695
2002 09 15.48214 23 43 18.05 -04 24 32.2 18.9   644 – Palomar Mountain/NEAT MPS 60695
2002 10 03.18351 23 29 43.18 -05 36 16.0 19.4   704 – Lincoln Laboratory ETS, New Mexico MPS 62499
2002 10 03.19925 23 29 42.45 -05 36 19.9 19.7   704 – Lincoln Laboratory ETS, New Mexico MPS 62499
2002 10 03.21501 23 29 41.82 -05 36 22.1 19.8   704 – Lincoln Laboratory ETS, New Mexico MPS 62499
2002 10 03.23076 23 29 41.11 -05 36 27.7 20.1   704 – Lincoln Laboratory ETS, New Mexico MPS 62499
2002 10 03.24662 23 29 40.41 -05 36 28.8 19.9   704 – Lincoln Laboratory ETS, New Mexico MPS 62499
2005 03 03.26003 12 04 39.02 +01 53 13.0 20.2 V 691 – Steward Observatory, Kitt Peak-Spacewatch MPS 127066
2005 03 03.28628 12 04 37.88 +01 53 19.9 20.2 V 691 – Steward Observatory, Kitt Peak-Spacewatch MPS 127066
2005 03 03.31183 12 04 36.79 +01 53 27.2 21.0 V 691 – Steward Observatory, Kitt Peak-Spacewatch MPS 127066
2005 03 08.30472 12 00 57.76 +02 15 37.2 20.4 R 683 – Goodricke-Pigott Observatory, Tucson MPS 127698
2005 03 08.31806 12 00 57.39 +02 15 41.1 20.6 R 683 – Goodricke-Pigott Observatory, Tucson MPS 127698
2005 03 08.33145 12 00 56.63 +02 15 42.8 20.6 R 683 – Goodricke-Pigott Observatory, Tucson MPS 127698
2005 03 09.30147 12 00 12.28 +02 20 08.7 20.6 R 683 – Goodricke-Pigott Observatory, Tucson MPS 127698
2005 03 09.31481 12 00 11.63 +02 20 14.5 20.6 R 683 – Goodricke-Pigott Observatory, Tucson MPS 127698
2005 03 09.32818 12 00 11.07 +02 20 17.1 21.3 R 683 – Goodricke-Pigott Observatory, Tucson MPS 127698
2005 03 11.21493 11 58 43.82 +02 28 59.7 19.9 V 691 – Steward Observatory, Kitt Peak-Spacewatch MPS 127698
2005 03 11.24051 11 58 42.60 +02 29 06.8 20.0 V 691 – Steward Observatory, Kitt Peak-Spacewatch MPS 127698
2005 03 11.26608 11 58 41.36 +02 29 14.0 19.9 V 691 – Steward Observatory, Kitt Peak-Spacewatch MPS 127698
2005 04 04.30201 11 40 05.97 +04 13 26.4 19.2 R G96 – Mt. Lemmon Survey MPS 130556
2005 04 04.30838 11 40 05.69 +04 13 27.5 19.2 R G96 – Mt. Lemmon Survey MPS 130556
2005 04 04.31478 11 40 05.42 +04 13 29.0 19.4 R G96 – Mt. Lemmon Survey MPS 130556
2005 04 04.32113 11 40 05.14 +04 13 30.2 19.1 R G96 – Mt. Lemmon Survey MPS 130556
2005 04 11.23242 11 35 39.68 +04 35 38.5 19.4 R G96 – Mt. Lemmon Survey MPS 131476
2005 04 11.24021 11 35 39.36 +04 35 39.0 19.2 R G96 – Mt. Lemmon Survey MPS 131476
2005 04 11.24800 11 35 39.11 +04 35 40.8 19.8 R G96 – Mt. Lemmon Survey MPS 131476
2005 04 11.25586 11 35 38.83 +04 35 41.9 18.5 R G96 – Mt. Lemmon Survey MPS 131476
2007 09 11.55918 00 03 03.56 -02 08 19.0 19.2 R D29 – Purple Mountain Observatory, XuYi Station MPS 214943
2007 09 11.56968 00 03 03.15 -02 08 22.4 19.6 R D29 – Purple Mountain Observatory, XuYi Station MPS 214943
2007 09 11.57956 00 03 02.63 -02 08 24.7 19.1 R D29 – Purple Mountain Observatory, XuYi Station MPS 214943
2007 09 11.58950 00 03 02.21 -02 08 27.6 19.4 R D29 – Purple Mountain Observatory, XuYi Station MPS 214943
2007 09 13.23317 00 01 47.21 -02 15 42.0 19.6   704 – Lincoln Laboratory ETS, New Mexico MPS 215931
2007 09 13.24476 00 01 46.62 -02 15 45.4 19.5   704 – Lincoln Laboratory ETS, New Mexico MPS 215931
2007 09 13.25635 00 01 46.11 -02 15 47.8 19.6   704 – Lincoln Laboratory ETS, New Mexico MPS 215931
2007 09 13.26794 00 01 45.51 -02 15 50.9 19.9   704 – Lincoln Laboratory ETS, New Mexico MPS 215931
